Tracking 30995 objects as of 5-Jul-2025
HD Live streaming from Space Station
objects crossing your sky now

TITAN 3C TRANSTAGE R/B

Track TITAN 3C TRANSTAGE R/B now!


NORAD ID: 2770
Int'l Code: 1967-040F
Perigee: 8,072.9 km
Apogee: 111,625.0 km
Inclination: 17.9 °
Period: 2,826.5 minutes
Semi major axis: 66219 km
RCS: 3.1623 m2 (large)
Launch date: April 28, 1967
Source: United States (US)
Launch site: AIR FORCE EASTERN TEST RANGE (AFETR)

Note: This is a ROCKET BODY
Your satellite tracking list
SHAKUNTALA
Track 1 satellite(s)




NASA's NSSDC Master Catalog

Two Line Element Set (TLE):
1 02770U 67040F   25188.74298619  .00000030  00000-0  00000-0 0  9996
2 02770  17.9495 217.1402 7818794 336.4937   0.2355  0.50947133 21548
Source of the keplerian elements: AFSPC